Weather reports worldwide

Advertisment
Plymouth, United Kingdom (3827): temperature & dewpoint: 13.08.2018 20:00:00 - 19.08.2018 20:00:00 (BST)Plymouth, United Kingdom (3827): wind speed & gusts: 13.08.2018 20:00:00 - 19.08.2018 20:00:00 (BST)Plymouth, United Kingdom (3827): wind direction: 13.08.2018 20:00:00 - 19.08.2018 20:00:00 (BST)Plymouth, United Kingdom (3827): reduced air pressure: 13.08.2018 20:00:00 - 19.08.2018 20:00:00 (BST)Plymouth, United Kingdom (3827): visibility: 13.08.2018 20:00:00 - 19.08.2018 20:00:00 (BST)Plymouth, United Kingdom (3827): precipitation: 13.08.2018 20:00:00 - 19.08.2018 20:00:00 (BST)
Date & Time tt [°C] td [°C] ff [km/h] ff [kn] fx [km/h] fx [kn] dd ppp [hPa] vv [km] rr [mm]
19.08.2018 20:00:00 19,3 16,2 16 9 - - NW 1021,3 23 0,0
19.08.2018 19:00:00 20,5 17,0 21 11 - - WNW 1021,1 27 0,0
19.08.2018 18:00:00 20,6 17,7 22 12 - - W 1020,9 30 0,0
19.08.2018 17:00:00 20,0 18,0 21 11 - - WNW 1021,1 30 0,0
19.08.2018 16:00:00 18,9 17,4 13 7 - - WSW 1021,0 11 0,0
19.08.2018 15:00:00 19,3 17,2 22 12 - - SW 1020,9 15 0,0
19.08.2018 14:00:00 20,7 17,4 18 10 - - SW 1020,8 18 0,0
19.08.2018 13:00:00 19,7 17,5 29 16 - - WSW 1020,6 19 0,0
19.08.2018 12:00:00 18,5 18,0 21 11 - - WSW 1020,7 10 0,0
19.08.2018 11:00:00 17,8 17,4 24 13 - - WSW 1020,9 4,0 0,0
19.08.2018 10:00:00 17,4 17,1 22 12 - - WSW 1020,7 8 0,0
19.08.2018 09:00:00 17,1 16,8 21 11 - - WSW 1020,4 7 0,0
19.08.2018 08:00:00 16,8 16,6 18 10 - - WSW 1020,4 12 0,0
19.08.2018 07:00:00 16,6 16,4 21 11 - - WSW 1020,3 2,3 0,2
19.08.2018 06:00:00 16,5 16,1 22 12 - - SW 1020,2 2,6 0,0
19.08.2018 05:00:00 16,7 15,8 31 17 - - SW 1020,4 5 0,0
19.08.2018 04:00:00 16,5 15,5 24 13 - - SW 1021,1 10 0,0
19.08.2018 03:00:00 16,5 15,3 24 13 - - SW 1021,5 10 0,0
19.08.2018 02:00:00 16,6 15,5 22 12 - - SW 1021,8 10 0,0
19.08.2018 01:00:00 16,7 15,2 28 15 - - SW 1021,9 12 0,0
19.08.2018 00:00:00 16,5 15,6 21 11 - - SW 1022,1 12 0,0
18.08.2018 23:00:00 16,1 15,5 16 9 - - SSW 1022,4 8 0,0
18.08.2018 22:00:00 16,3 15,4 16 9 - - SW 1022,8 8 0,0
18.08.2018 21:00:00 16,7 15,5 18 10 - - SSW 1022,4 9 0,0
18.08.2018 20:00:00 17,0 15,4 15 8 - - SSW 1022,4 10 0,0
18.08.2018 19:00:00 17,2 15,2 18 10 - - SSW 1022,3 11 0,0
18.08.2018 18:00:00 17,8 15,2 21 11 - - SW 1022,4 13 0,0
18.08.2018 17:00:00 19,4 16,1 21 11 - - SW 1022,3 15 0,0
18.08.2018 16:00:00 19,1 15,9 22 12 - - SSW 1022,4 21 0,0
18.08.2018 15:00:00 20,5 16,1 18 10 - - SW 1022,7 13 0,0
18.08.2018 14:00:00 19,5 15,8 21 11 - - SW 1023,1 15 0,0
18.08.2018 13:00:00 18,2 15,0 18 10 - - WSW 1023,4 12 0,0
18.08.2018 12:00:00 18,9 15,1 18 10 - - SW 1023,2 12 0,0
18.08.2018 11:00:00 19,1 15,2 16 9 - - WSW 1023,0 14 0,0
18.08.2018 10:00:00 18,0 15,0 16 9 - - WSW 1023,0 14 0,0
18.08.2018 09:00:00 16,7 14,6 18 10 - - SW 1022,8 10 0,0
18.08.2018 08:00:00 16,1 14,3 13 7 - - WSW 1022,5 10 0,0
18.08.2018 07:00:00 15,9 14,3 16 9 - - SW 1022,3 11 0,0
18.08.2018 06:00:00 15,8 14,5 18 10 - - SW 1022,1 9 0,0
18.08.2018 05:00:00 15,9 14,8 18 10 - - WSW 1022,1 9 0,0
18.08.2018 04:00:00 15,9 14,7 18 10 - - SW 1022,1 9 0,0
18.08.2018 03:00:00 15,8 14,9 22 12 - - WSW 1022,2 8 0,0
18.08.2018 02:00:00 15,9 14,7 22 12 - - WSW 1022,6 9 0,0
18.08.2018 01:00:00 16,0 14,5 22 12 - - WSW 1022,8 9 0,0
18.08.2018 00:00:00 15,9 14,2 16 9 - - WSW 1023,2 9 0,0
17.08.2018 23:00:00 16,1 13,4 13 7 - - WSW 1023,4 14 0,0
17.08.2018 22:00:00 16,2 13,0 18 10 - - WSW 1023,1 13 0,0
17.08.2018 21:00:00 15,6 12,3 13 7 - - W 1022,7 19 0,0
17.08.2018 20:00:00 17,0 12,5 16 9 - - W 1022,6 17 0,0
17.08.2018 19:00:00 17,9 13,4 16 9 - - W 1022,2 12 0,0
17.08.2018 18:00:00 18,7 13,1 22 12 - - WSW 1022,2 18 0,0
17.08.2018 17:00:00 20,5 13,8 18 10 - - WSW 1022,0 14 0,0
17.08.2018 16:00:00 18,8 14,2 21 11 - - SW 1022,5 18 0,0
17.08.2018 15:00:00 18,2 12,8 18 10 - - W 1022,9 16 0,0
17.08.2018 14:00:00 19,3 12,3 21 11 - - SW 1022,7 16 0,0
17.08.2018 13:00:00 19,1 13,3 16 9 - - SW 1022,6 22 0,0
17.08.2018 12:00:00 18,6 12,5 18 10 - - SW 1022,8 27 0,0
17.08.2018 11:00:00 17,3 11,5 16 9 - - W 1022,7 30 0,0
17.08.2018 10:00:00 17,3 12,0 13 7 - - W 1022,4 21 0,0
17.08.2018 09:00:00 15,5 12,5 11 6 - - W 1021,7 16 0,0
17.08.2018 08:00:00 13,7 12,8 8 4 - - WNW 1021,4 17 0,0
17.08.2018 07:00:00 12,3 12,0 8 4 - - NW 1020,8 14 0,0
17.08.2018 06:00:00 11,8 11,4 2 1 - - NNW 1020,4 11 0,0
17.08.2018 05:00:00 11,4 11,0 2 1 - - NE 1020,1 9 0,0
17.08.2018 04:00:00 11,0 10,5 4 2 - - E 1020,0 9 0,0
17.08.2018 03:00:00 11,2 10,5 2 1 - - N 1019,8 12 0,0
17.08.2018 02:00:00 11,8 10,9 4 2 - - N 1019,8 13 0,0
17.08.2018 01:00:00 12,4 11,1 5 3 - - W 1019,7 9 0,0
17.08.2018 00:00:00 12,6 11,2 5 3 - - W 1019,6 13 0,0
16.08.2018 23:00:00 13,0 11,3 8 4 - - W 1019,1 20 0,0
16.08.2018 22:00:00 14,3 11,3 11 6 - - WNW 1018,6 17 0,0
16.08.2018 21:00:00 15,2 11,3 13 7 - - WNW 1018,0 15 0,0
16.08.2018 20:00:00 16,6 10,9 18 10 - - NW 1017,2 24 0,0
16.08.2018 19:00:00 17,7 10,3 22 12 - - WNW 1016,8 23 0,0
16.08.2018 18:00:00 19,2 11,5 21 11 - - NW 1016,5 25 0,0
16.08.2018 17:00:00 16,8 11,5 24 13 - - W 1016,5 29 0,0
16.08.2018 16:00:00 18,4 10,9 21 11 - - WNW 1015,9 26 0,0
16.08.2018 15:00:00 18,2 11,9 22 12 - - WNW 1015,8 15 0,0
16.08.2018 14:00:00 19,6 10,5 18 10 - - WNW 1015,0 30 0,0
16.08.2018 13:00:00 18,8 14,0 16 9 - - W 1015,0 18 0,0
16.08.2018 12:00:00 17,8 15,4 21 11 - - SW 1015,0 11 0,0
16.08.2018 11:00:00 16,3 15,7 15 8 - - SW 1015,0 10 0,0
16.08.2018 10:00:00 15,1 14,8 8 4 - - SW 1014,7 8 0,0
16.08.2018 09:00:00 14,3 13,9 9 5 - - W 1014,5 6 1,8
16.08.2018 08:00:00 14,7 14,0 13 7 - - WNW 1014,2 5 3,0
16.08.2018 07:00:00 16,0 15,7 16 9 - - WSW 1013,6 7 0,4
16.08.2018 06:00:00 16,2 16,1 16 9 - - WSW 1013,7 8 0,2
16.08.2018 05:00:00 16,5 16,3 28 15 50 27 WSW 1013,6 3,9 0,8
16.08.2018 04:00:00 16,6 16,3 37 20 46 25 SW 1013,8 2,7 0,8
16.08.2018 03:00:00 16,6 16,2 34 18 46 25 SW 1014,4 2,3 0,4
16.08.2018 02:00:00 16,7 16,0 29 16 - - SW 1015,3 3,5 0,0
16.08.2018 01:00:00 17,0 16,0 28 15 - - SSW 1015,7 10 0,0
16.08.2018 00:00:00 16,9 15,9 24 13 - - SSW 1016,2 10 0,0
15.08.2018 23:00:00 16,9 15,9 24 13 - - SSW 1016,6 10 0,0
15.08.2018 22:00:00 16,8 16,0 24 13 - - SW 1017,2 10 0,0
15.08.2018 21:00:00 16,8 16,3 24 13 - - SW 1017,4 5 0,0
15.08.2018 20:00:00 16,9 16,2 21 11 - - SSW 1017,4 4,1 0,0
15.08.2018 19:00:00 17,4 16,1 21 11 - - SW 1017,8 7 0,0
15.08.2018 18:00:00 17,9 16,1 24 13 - - SSW 1018,1 16 0,0
15.08.2018 17:00:00 18,6 16,3 21 11 - - SSW 1018,6 16 0,0
15.08.2018 16:00:00 19,1 16,4 21 11 - - SSW 1018,9 21 0,0
15.08.2018 15:00:00 19,6 16,6 21 11 - - SW 1019,3 17 0,0
15.08.2018 14:00:00 19,9 16,7 24 13 - - SW 1019,7 11 0,0
15.08.2018 13:00:00 19,5 16,7 26 14 - - SW 1019,8 10 0,0
15.08.2018 12:00:00 19,5 17,0 21 11 - - SSW 1019,9 35 0,0
15.08.2018 11:00:00 18,5 16,8 18 10 - - SW 1020,1 24 0,0
15.08.2018 10:00:00 17,4 16,5 9 5 - - SW 1020,1 12 0,0
15.08.2018 09:00:00 16,7 15,9 21 11 - - SW 1020,2 11 0,0
15.08.2018 08:00:00 16,3 15,5 13 7 - - WSW 1020,0 11 0,0
15.08.2018 07:00:00 16,2 15,4 11 6 - - WSW 1020,1 10 0,0
15.08.2018 06:00:00 16,1 15,3 15 8 - - WSW 1019,9 11 0,0
15.08.2018 05:00:00 16,1 15,2 13 7 - - WSW 1019,9 11 0,0
15.08.2018 04:00:00 16,0 15,4 13 7 - - W 1020,2 8 0,0
15.08.2018 03:00:00 16,3 15,4 13 7 - - WSW 1020,3 10 0,0
15.08.2018 02:00:00 16,6 15,4 9 5 - - WSW 1020,4 13 0,0
15.08.2018 01:00:00 16,6 15,5 15 8 - - SW 1020,5 11 0,0
15.08.2018 00:00:00 16,4 15,1 8 4 - - WSW 1020,7 13 0,0
14.08.2018 23:00:00 16,7 14,1 13 7 - - WSW 1020,8 15 0,0
14.08.2018 22:00:00 17,3 14,0 18 10 - - W 1021,0 20 0,0
14.08.2018 21:00:00 17,6 13,7 22 12 - - W 1020,7 21 0,0
14.08.2018 20:00:00 18,3 14,1 22 12 - - W 1020,3 30 0,0
14.08.2018 19:00:00 18,6 14,3 16 9 - - W 1020,1 16 0,0
14.08.2018 18:00:00 18,9 14,1 22 12 - - WNW 1020,1 15 0,0
14.08.2018 17:00:00 19,8 15,1 18 10 - - WSW 1020,1 18 0,0
14.08.2018 16:00:00 21,2 15,5 22 12 - - W 1019,9 17 0,0
14.08.2018 15:00:00 21,5 16,1 22 12 - - W 1019,7 35 0,0
14.08.2018 14:00:00 20,0 16,4 22 12 - - WNW 1019,7 14 0,0
14.08.2018 13:00:00 19,1 17,6 11 6 - - WSW 1019,5 21 0,0
14.08.2018 12:00:00 19,4 16,5 15 8 - - W 1019,2 30 0,0
14.08.2018 11:00:00 18,3 15,8 15 8 - - W 1019,2 40 0,0
14.08.2018 10:00:00 17,6 16,5 18 10 - - W 1018,8 16 0,0
14.08.2018 09:00:00 17,1 16,8 8 4 - - W 1018,3 20 0,0
14.08.2018 08:00:00 16,4 16,1 11 6 - - WSW 1018,0 1,6 0,4
14.08.2018 07:00:00 15,9 15,3 9 5 - - SW 1017,6 13 0,0
14.08.2018 06:00:00 15,6 14,9 9 5 - - W 1017,1 15 0,0
14.08.2018 05:00:00 15,8 15,1 13 7 - - W 1016,7 14 0,0
14.08.2018 04:00:00 14,9 14,1 9 5 - - W 1016,7 15 0,0
14.08.2018 03:00:00 15,4 14,5 15 8 - - W 1016,3 19 0,0
14.08.2018 02:00:00 16,0 14,9 13 7 - - W 1016,3 19 0,0
14.08.2018 01:00:00 16,4 14,8 15 8 - - W 1016,0 25 0,0
14.08.2018 00:00:00 16,4 14,6 13 7 - - W 1015,7 35 0,0
13.08.2018 23:00:00 17,2 14,4 11 6 - - WNW 1015,2 27 0,0
13.08.2018 22:00:00 17,5 14,4 13 7 - - WNW 1015,0 35 0,0
13.08.2018 21:00:00 18,0 13,7 13 7 - - NNW 1014,2 25 0,0
13.08.2018 20:00:00 19,4 14,0 13 7 - - NW 1013,4 22 0,0

tt = temperature
td = dewpoint
ff = wind speed
fx = gusts
dd = wind direction
ppp = reduced air pressure
vv = visibility
rr = precipitation

Next stations